Le Mars, IA

4:49 AM CST on December 13, 2019 (GMT -0600)
Le Mars Municipal

Weather History for KLRJ - November, 2019

Change the Weather History Date:

Saturday, November 16, 2019

  Actual Average Record
Temperature  
Mean Temperature 43 °F -  
Max Temperature 51 °F 48 °F 91 °F (1997)
Min Temperature 35 °F 25 °F -4 °F (2014)
Degree Days  
Heating Degree Days 22    
Moisture  
Dew Point 31 °F    
Average Humidity 63    
Maximum Humidity 93    
Minimum Humidity 44    
Precipitation  
Precipitation 0.00 in - - ()
Sea Level Pressure  
Sea Level Pressure 30.00 in    
Wind  
Wind Speed 13 mph (South)    
Max Wind Speed 29 mph    
Max Gust Speed 39 mph    
Visibility 10 miles    
Events Rain    
Averages and records for this station are not official NWS values.
T = Trace of Precipitation, MM = Missing Value Source: NWS Daily Summary

Daily Weather History Graph

Daily Weather History Graph

Search for Another Location

Airport or City:

Astronomy

Nov. 16, 2019 Rise Set
Actual Time 7:17 AM CST 5:00 PM CST
Civil Twilight 6:47 AM CST 5:31 PM CST
Nautical Twilight 6:12 AM CST 6:05 PM CST
Astronomical Twilight 5:39 AM CST 6:39 PM CST
Moon 8:32 PM CST (11/16) 11:15 AM CST (11/16)
Length of Visible Light 10h 44m
Length of Day
9h 43m
Waning Gibbous, 82% of the Moon is Illuminated
Nov 16
Waning Gibbous
Nov 19
Last Quarter
Nov 26
New
Dec 4
First Quarter
Dec 11
Full

Hourly Weather History & Observations

Time (CST) Temp. Windchill Dew Point Humidity Pressure Visibility Wind Dir Wind Speed Gust Speed Precip Events Conditions
12:15 AM 37.4 °F 30.3 °F 32.0 °F 81% 30.15 in 10.0 mi SSE 10.4 mph - N/A   Clear
12:55 AM 37.4 °F 30.3 °F 30.2 °F 75% 30.14 in 10.0 mi SSE 10.4 mph - N/A   Clear
1:15 AM 37.4 °F 30.3 °F 30.2 °F 75% 30.13 in 10.0 mi SSE 10.4 mph - N/A   Clear
1:35 AM 37.4 °F 29.8 °F 30.2 °F 75% 30.13 in 10.0 mi SSE 11.5 mph - N/A   Clear
1:55 AM 35.6 °F 28.0 °F 30.2 °F 81% 30.12 in 10.0 mi SSE 10.4 mph - N/A   Clear
2:15 AM 37.4 °F 29.8 °F 30.2 °F 75% 30.11 in 10.0 mi SSE 11.5 mph - N/A   Clear
2:35 AM 37.4 °F 29.8 °F 30.2 °F 75% 30.10 in 10.0 mi SSE 11.5 mph - N/A   Clear
2:55 AM 37.4 °F 29.8 °F 30.2 °F 75% 30.10 in 10.0 mi SSE 11.5 mph 18.4 mph N/A   Clear
3:15 AM 37.4 °F 28.5 °F 30.2 °F 75% 30.09 in 10.0 mi SSE 15.0 mph - N/A   Clear
3:35 AM 37.4 °F 29.3 °F 30.2 °F 75% 30.09 in 10.0 mi South 12.7 mph 18.4 mph N/A   Clear
3:55 AM 39.2 °F 31.6 °F 30.2 °F 70% 30.08 in 10.0 mi SSE 12.7 mph - N/A   Clear
4:35 AM 39.2 °F 31.2 °F 30.2 °F 70% 30.07 in 10.0 mi South 13.8 mph - N/A   Clear
4:55 AM 39.2 °F 31.6 °F 30.2 °F 70% 30.07 in 10.0 mi South 12.7 mph - N/A   Clear
5:15 AM 39.2 °F 30.8 °F 30.2 °F 70% 30.06 in 10.0 mi SSE 15.0 mph - N/A   Clear
5:35 AM 39.2 °F 30.5 °F 30.2 °F 70% 30.06 in 10.0 mi SSE 16.1 mph - N/A   Clear
5:55 AM 39.2 °F 31.2 °F 30.2 °F 70% 30.06 in 10.0 mi SSE 13.8 mph 20.7 mph N/A   Clear
6:15 AM 39.2 °F 30.8 °F 30.2 °F 70% 30.06 in 10.0 mi SSE 15.0 mph - N/A   Clear
6:35 AM 39.2 °F 30.5 °F 28.4 °F 65% 30.05 in 10.0 mi SSE 16.1 mph - N/A   Clear
6:55 AM 39.2 °F 30.2 °F 28.4 °F 65% 30.05 in 10.0 mi SSE 17.3 mph - N/A   Clear
7:15 AM 37.4 °F 27.8 °F 28.4 °F 70% 30.05 in 10.0 mi SSE 17.3 mph - N/A   Clear
7:55 AM 39.2 °F 30.2 °F 28.4 °F 65% 30.05 in 10.0 mi South 17.3 mph 23.0 mph N/A   Clear
8:15 AM 39.2 °F 29.8 °F 28.4 °F 65% 30.05 in 10.0 mi South 18.4 mph 27.6 mph N/A   Clear
8:35 AM 41.0 °F 32.8 °F 28.4 °F 61% 30.05 in 10.0 mi South 16.1 mph - N/A   Clear
8:55 AM 41.0 °F 32.2 °F 28.4 °F 61% 30.04 in 10.0 mi South 18.4 mph - N/A   Clear
9:15 AM 42.8 °F 34.0 °F 28.4 °F 57% 30.03 in 10.0 mi South 20.7 mph 28.8 mph N/A   Clear
9:35 AM 44.6 °F 35.9 °F 28.4 °F 53% 30.02 in 10.0 mi South 23.0 mph 34.5 mph N/A   Clear
9:55 AM 46.4 °F 37.4 °F 28.4 °F 50% 30.00 in 10.0 mi South 28.8 mph 36.8 mph N/A   Clear
10:15 AM 46.4 °F 38.5 °F 28.4 °F 50% 30.00 in 10.0 mi South 21.9 mph 29.9 mph N/A   Clear
10:35 AM 48.2 °F - 28.4 °F 46% 29.99 in 10.0 mi South 27.6 mph 33.4 mph N/A   Clear
10:55 AM 48.2 °F - 30.2 °F 50% 29.98 in 10.0 mi South 25.3 mph 33.4 mph N/A   Clear
11:15 AM 48.2 °F - 30.2 °F 50% 29.98 in 10.0 mi South 25.3 mph 39.1 mph N/A   Clear
11:55 AM 50.0 °F - 30.2 °F 47% 29.97 in 10.0 mi South 25.3 mph 32.2 mph N/A   Clear
12:15 PM 50.0 °F - 30.2 °F 47% 29.96 in 10.0 mi South 21.9 mph 31.1 mph N/A   Clear
12:35 PM 50.0 °F - 30.2 °F 47% 29.95 in 10.0 mi South 20.7 mph 26.5 mph N/A   Clear
12:55 PM 50.0 °F - 30.2 °F 47% 29.94 in 10.0 mi South 18.4 mph 27.6 mph N/A   Clear
1:15 PM 50.0 °F - 30.2 °F 47% 29.92 in 10.0 mi South 18.4 mph 27.6 mph N/A   Clear
1:35 PM 51.8 °F - 30.2 °F 44% 29.91 in 10.0 mi South 24.2 mph 32.2 mph N/A   Clear
1:55 PM 50.0 °F - 30.2 °F 47% 29.90 in 10.0 mi South 20.7 mph 27.6 mph N/A   Clear
2:15 PM 51.8 °F - 32.0 °F 47% 29.89 in 10.0 mi SSE 20.7 mph - N/A   Clear
2:35 PM 51.8 °F - 32.0 °F 47% 29.90 in 10.0 mi SSE 15.0 mph - N/A   Clear
2:55 PM 51.8 °F - 32.0 °F 47% 29.89 in 10.0 mi South 18.4 mph - N/A   Clear
3:15 PM 51.8 °F - 32.0 °F 47% 29.89 in 10.0 mi SSE 16.1 mph - N/A   Clear
3:55 PM 51.8 °F - 32.0 °F 47% 29.90 in 10.0 mi South 12.7 mph - N/A   Clear
4:15 PM 50.0 °F - 32.0 °F 50% 29.90 in 10.0 mi South 10.4 mph 17.3 mph N/A   Clear
4:35 PM 50.0 °F - 32.0 °F 50% 29.91 in 10.0 mi South 8.1 mph - N/A   Clear
4:55 PM 48.2 °F - 32.0 °F 54% 29.92 in 9.0 mi South 6.9 mph - N/A   Clear
5:15 PM 48.2 °F - 32.0 °F 54% 29.93 in 10.0 mi South 5.8 mph - N/A   Partly Cloudy
5:35 PM 46.4 °F 44.3 °F 32.0 °F 57% 29.93 in 10.0 mi SSE 4.6 mph - N/A   Partly Cloudy
5:55 PM 46.4 °F 44.3 °F 32.0 °F 57% 29.94 in 10.0 mi South 4.6 mph - N/A   Scattered Clouds
6:15 PM 46.4 °F 43.5 °F 32.0 °F 57% 29.94 in 10.0 mi SSE 5.8 mph - N/A   Mostly Cloudy
6:35 PM 46.4 °F 42.9 °F 32.0 °F 57% 29.94 in 10.0 mi South 6.9 mph - N/A   Mostly Cloudy
6:55 PM 46.4 °F 43.5 °F 33.8 °F 62% 29.95 in 10.0 mi South 5.8 mph - N/A   Mostly Cloudy
7:15 PM 46.4 °F 44.3 °F 32.0 °F 57% 29.95 in 10.0 mi South 4.6 mph - N/A   Overcast
7:35 PM 44.6 °F 41.4 °F 33.8 °F 66% 29.95 in 10.0 mi South 5.8 mph - N/A   Mostly Cloudy
7:55 PM 44.6 °F 42.2 °F 33.8 °F 66% 29.96 in 10.0 mi South 4.6 mph - N/A   Scattered Clouds
8:15 PM 44.6 °F - 33.8 °F 66% 29.96 in 10.0 mi Calm Calm - N/A   Overcast
8:35 PM 44.6 °F - 33.8 °F 66% 29.96 in 10.0 mi Calm Calm - N/A   Overcast
8:55 PM 44.6 °F 43.1 °F 33.8 °F 66% 29.96 in 10.0 mi WSW 3.5 mph - N/A   Overcast
9:15 PM 44.6 °F - 33.8 °F 66% 29.96 in 10.0 mi Calm Calm - N/A   Overcast
9:35 PM 42.8 °F - 33.8 °F 70% 29.96 in 10.0 mi Calm Calm - N/A   Mostly Cloudy
9:55 PM 42.8 °F - 33.8 °F 70% 29.96 in 10.0 mi Calm Calm - N/A   Overcast
10:15 PM 44.6 °F 43.1 °F 33.8 °F 66% 29.97 in 10.0 mi WNW 3.5 mph - N/A   Overcast
10:35 PM 44.6 °F 39.7 °F 37.4 °F 76% 29.97 in 10.0 mi NW 9.2 mph - N/A Rain Light Rain
10:55 PM 42.8 °F 39.3 °F 39.2 °F 87% 29.97 in 10.0 mi NW 5.8 mph - N/A   Overcast
11:15 PM 42.8 °F 39.3 °F 39.2 °F 87% 29.97 in 10.0 mi NW 5.8 mph - N/A   Overcast
11:35 PM 41.0 °F 38.0 °F 39.2 °F 93% 29.97 in 10.0 mi NW 4.6 mph - N/A   Overcast
11:55 PM 41.0 °F 39.0 °F 39.2 °F 93% 29.97 in 10.0 mi NW 3.5 mph - N/A   Overcast